Location: Dehesa de la Cepeda
(40.6574°N, 4.3013°W)
Time: 21:14:16
(UTC+00:00)

Vanguard 2 Rocket - Pass Details

Date: 05 August 2021
Orbit: 556 x 3324 km, 32.9° (Epoch: 19 September)

Event Time Altitude Azimuth Distance (km) Brightness Sun altitude
Rises 08:27:42 0° 255° (WSW) 2,905 9.0 34.3°
Reaches altitude 10° 08:30:18 10° 243° (WSW) 1,875 8.2 34.8°
Maximum altitude 08:33:46 28° 183° (S) 1,053 7.6 35.5°
Drops below altitude 10° 08:37:20 10° 122° (ESE) 1,921 9.7 36.2°
Sets 08:40:02 0° 111° (ESE) 2,992 10.5 36.7°
